Location: *
(32.8667°N, 13.1833°E)
Time: 18:22:08
(UTC+00:00)

Cosmos 1869 - Pass Details

Date: 18 July 2019
Orbit: 534 x 549 km, 82.5° (Epoch: 24 August)

Event Time Altitude Azimuth Distance (km) Brightness Sun altitude
Rises 19:44:13 0° 352° (N) 2,690 7.6 -16.6°
Reaches altitude 10° 19:46:23 10° 351° (N) 1,794 6.6 -16.9°
Maximum altitude 19:50:19 79° 266° (W) 549 3.3 -17.5°
Enters shadow 19:52:20 28° 182° (S) 1,031 4.3 -17.9°
